Location: Cussy
(47.0410°N, 4.6412°E)
Time: 16:49:06
(UTC+00:00)

Cosmos 1943 Rocket - Visible Passes

Search period start: 16 April 2021 00:00
Search period end: 26 April 2021 00:00
Orbit: 811 x 844 km, 71.0° (Epoch: 15 April)

Date Brightness Start Highest point End Pass type
(mag) Time Alt. Az. Time Alt. Az. Time Alt. Az.
16 Apr 3.7 03:02:23 10° SSE 03:07:25 34° ESE 03:12:26 10° NE visible
17 Apr 3.8 02:43:25 10° SSE 02:48:15 30° ESE 02:53:06 10° NE visible
18 Apr 3.9 02:24:37 11° SSE 02:29:06 26° ESE 02:33:43 10° NE visible
18 Apr 2.5 04:06:57 10° SW 04:12:30 54° WNW 04:18:04 10° NNE visible
19 Apr 4.1 02:06:12 12° SSE 02:09:57 23° ESE 02:14:19 10° NE visible
19 Apr 2.4 03:47:45 11° SW 03:53:14 61° WNW 03:58:51 10° NNE visible
20 Apr 4.2 01:47:44 14° SE 01:50:48 21° E 01:54:53 10° NE visible
20 Apr 2.3 03:29:16 15° SW 03:34:00 68° WNW 03:39:39 10° NNE visible
21 Apr 4.2 01:29:12 14° SE 01:31:40 18° E 01:35:24 10° ENE visible
21 Apr 2.2 03:10:43 20° SW 03:14:45 76° WNW 03:20:26 10° NNE visible
22 Apr 4.3 01:10:36 14° ESE 01:12:33 16° E 01:15:51 10° ENE visible
22 Apr 2.1 02:52:08 25° SSW 02:55:31 85° WNW 03:01:13 10° NNE visible
23 Apr 4.4 00:51:58 13° ESE 00:53:25 14° E 00:56:12 10° ENE visible
23 Apr 2.2 02:33:30 31° SSW 02:36:18 87° ESE 02:41:59 10° NNE visible
24 Apr 4.5 00:33:17 12° ESE 00:34:18 12° E 00:36:23 10° ENE visible
24 Apr 2.2 02:14:49 38° SSW 02:17:05 78° ESE 02:22:45 10° NNE visible
24 Apr 3.7 03:57:05 10° W 04:01:28 22° NW 04:05:51 10° N visible
25 Apr 4.6 00:14:34 10° E 00:15:12 10° E 00:15:58 10° E visible
25 Apr 2.3 01:56:05 44° S 01:57:53 69° ESE 02:03:29 10° NNE visible
25 Apr 3.6 03:37:37 10° W 03:42:09 25° NW 03:46:44 10° N visible
